This is the latest recevied weather packets stored in our database for station/object KJ4EWA. If no packets are shown the sender has not sent any weather packets the latest 10 day(s).
| Time | Temp. | Humidity | Pressure | Rain* | Wind** | Luminosity | Snow |
|---|---|---|---|---|---|---|---|
| 1777465410 | 22.22° C | 99% | 1019.2 hPa | 0 mm | - | 69 W/m² | - |
| 1777465109 | 21.67° C | 99% | 1018.9 hPa | 0 mm | - | 53 W/m² | - |
| 1777464805 | 21.67° C | 99% | 1018.9 hPa | 0 mm | - | 54 W/m² | - |
| 1777464500 | 21.67° C | 99% | 1018.6 hPa | 0 mm | - | 45 W/m² | - |
| 1777464195 | 21.67° C | 99% | 1018.8 hPa | 0 mm | - | 39 W/m² | - |
| 1777463895 | 21.11° C | 99% | 1018.8 hPa | 0 mm | - | 29 W/m² | - |
| 1777463592 | 21.11° C | 99% | 1018.7 hPa | 0 mm | - | 21 W/m² | - |
| 1777463287 | 21.11° C | 99% | 1019.1 hPa | 0 mm | - | 16 W/m² | - |
| 1777462983 | 21.67° C | 99% | 1018.6 hPa | 0 mm | - | 11 W/m² | - |
| 1777462679 | 21.11° C | 99% | 1018.7 hPa | 0 mm | - | 12 W/m² | - |
| 1777462374 | 21.11° C | 99% | 1018.7 hPa | 0 mm | - | 10 W/m² | - |
| 1777462070 | 21.11° C | 99% | 1018.5 hPa | 0 mm | - | 7 W/m² | - |
| 1777461768 | 21.11° C | 99% | 1018.4 hPa | 0 mm | - | 4 W/m² | - |
| 1777461463 | 21.11° C | 99% | 1018.8 hPa | 0 mm | - | 1 W/m² | - |
| 1777461160 | 21.11° C | 99% | 1018.8 hPa | 0 mm | - | 0 W/m² | - |
| 1777460855 | 21.67° C | 99% | 1018.9 hPa | 0 mm | - | 0 W/m² | - |
| 1777460551 | 21.67° C | 99% | 1018.9 hPa | 0 mm | - | 0 W/m² | - |
| 1777460247 | 21.11° C | 99% | 1018.6 hPa | 0 mm | - | 0 W/m² | - |
| 1777459944 | 21.11° C | 99% | 1018.7 hPa | 0 mm | - | 0 W/m² | - |
| 1777459641 | 21.11° C | 99% | 1018.7 hPa | 0 mm | - | 0 W/m² | - |
| 1777459338 | 21.11° C | 99% | 1018.9 hPa | 0 mm | - | 0 W/m² | - |
| 1777459036 | 21.11° C | 99% | 1018.8 hPa | 0 mm | - | 0 W/m² | - |
| 1777458733 | 21.67° C | 99% | 1018.9 hPa | 0 mm | - | 0 W/m² | - |
| 1777458429 | 21.67° C | 99% | 1018.6 hPa | 0 mm | - | 0 W/m² | - |
| 1777458126 | 21.67° C | 99% | 1018.8 hPa | 0 mm | - | 0 W/m² | - |
* Rain latest hour (hover to see other rain measurements)
** Current wind speed in m/s (hover to see current wind gust speed)